Location: Kailua
(21.4020°N, 157.7390°W)
Time: 15:53:19
(UTC-10:00)

Daily predictions for brighter satellites

Satellite Brightness Start Highest point End
(mag) Time Altitude Azimuth Time Altitude Azimuth Time Altitude Azimuth
NOSS 3-2 (A) 4.0 18:37:24 10° SW 18:43:14 62° WNW 18:49:24 10° NNE
Cosmos 921 Rocket 2.8 18:39:36 10° N 18:43:45 75° ENE 18:47:55 10° SSE
GPS 2-04 Rocket1 3.1 18:42:05 10° WSW 18:45:26 50° NNW 18:48:54 10° NE
Cosmos 1603 4.3 18:43:07 10° SSE 18:48:13 35° ESE 18:53:21 10° NE
Meteor 1-24 Rocket 4.2 18:43:38 10° NNE 18:48:41 36° E 18:53:35 10° SSE
Meteor 2-5 Rocket 3.6 18:43:29 10° N 18:49:04 76° E 18:54:34 10° S
Delta 168 3.5 18:46:52 10° W 18:51:08 74° N 18:57:38 10° ENE
Cosmos 1484 Rocket 2.7 18:47:27 10° SSE 18:51:11 65° ENE 18:54:58 10° N
Tiangong 2 1.0 18:49:33 10° NW 18:52:42 90° NE 18:55:49 10° SE
Cosmos 2034 Rocket 4.5 18:47:17 10° SSE 18:52:53 36° E 18:58:32 10° NNE
Cosmos-2242 4.1 18:50:21 10° SE 18:53:47 23° E 18:57:15 10° NE
Cosmos 1464 Rocket 4.1 18:49:05 10° SSE 18:55:13 57° E 19:01:17 10° NNE
Milstar 3 4.4 18:47:11 10° W 18:56:31 64° N 19:13:32 13° E
ASC 2 Rocket 3.2 18:53:10 10° W 18:57:41 61° N 19:01:14 13° E
SL-8 R/B 4.0 18:54:10 10° SW 18:58:55 71° NW 19:03:41 10° NE
Helios 1B rocket 2.7 18:56:52 10° NNE 19:00:48 44° E 19:04:43 10° S
Abrixas 3.6 18:58:53 10° WSW 19:01:44 43° NW 19:04:37 10° NNE
Centaur Rocket 4.1 18:59:13 10° WSW 19:02:31 48° S 19:10:50 12° ESE
SAR-Lupe-1 4.2 19:02:29 10° SSE 19:05:55 49° ENE 19:09:22 10° N
GPS 2-05 Rocket1 3.0 19:04:20 10° NW 19:07:38 55° NNE 19:09:54 19° ESE
Cosmos 1766 3.8 19:07:01 10° SSW 19:10:54 61° W 19:14:48 10° N
Cosmos 2056 Rocket 3.7 19:07:05 10° N 19:12:21 51° ENE 19:17:33 10° SSE
NOAA 12 4.1 19:09:22 10° SSE 19:14:29 58° ENE 19:19:39 10° N
Meteosat 1 Rocket2 3.8 19:07:24 10° WSW 19:15:03 88° SSE 19:18:51 18° ENE
Cosmos 1408 Rocket 4.2 19:14:07 10° NNE 19:18:00 32° E 19:21:49 10° SE
CENTAUR R/B 2.7 19:14:44 10° S 19:20:00 38° ESE 19:25:39 10° NE
Resurs 01 Rocket 2.2 19:16:09 10° SE 19:20:14 36° ENE 19:24:19 10° N
Resurs 1-3 4.5 19:19:31 20° ESE 19:21:23 28° ENE 19:25:06 10° NNE
Cosmos 1371 Rocket 4.0 19:16:38 10° NNW 19:21:58 87° WSW 19:27:18 10° SSE
ATLAS CENTAUR R/B 1.3 19:18:14 10° NNW 19:22:03 47° ENE 19:23:56 24° SE
ISS -2.8 19:22:00 10° SW 19:25:11 58° NW 19:27:43 15° NNE
Atlas Centaur 2 3.3 19:20:51 10° WNW 19:29:19 59° NNE 19:34:09 25° E
Okean 3 Rocket 4.2 19:25:17 10° NNW 19:29:45 61° W 19:34:13 10° S
Meteor 1-29 3.1 19:27:59 10° N 19:31:29 77° WNW 19:34:55 10° SSW
Cosmos 1953 2.3 19:28:48 10° S 19:32:48 82° W 19:36:47 10° N
ATLAS 5 CENTAUR R/B 3.9 19:29:12 10° WSW 19:33:08 27° WNW 19:37:15 10° N
SWIFT 2.7 19:30:15 10° W 19:34:22 54° S 19:35:53 34° SE
Cosmos 1624 Rocket 4.2 19:34:21 10° NNW 19:39:31 72° WSW 19:44:40 10° S
Helios 1A 2.9 19:39:39 25° SSE 19:41:54 61° ENE 19:46:01 10° N
Yuri Rocket 3.0 19:37:50 10° WNW 19:42:01 67° SSW 19:43:14 42° SE
Cosmos 1805 3.9 19:38:38 10° SSW 19:42:29 58° W 19:46:22 10° N
Cosmos 1544 2.9 19:39:09 10° S 19:42:51 85° E 19:46:35 10° N
Spot 1 4.3 19:39:26 10° SSE 19:44:23 87° WSW 19:49:06 10° NNW
Orbus 7S 4.2 19:42:00 10° WNW 19:44:38 85° SSW 19:44:49 77° SE
GPS 2-12 Rocket1 3.1 19:43:19 10° WSW 19:47:41 56° S 19:48:16 51° SE
FUSE 4.2 19:42:31 10° W 19:47:48 61° N 19:49:37 39° ENE
CZ-3C R/B 4.0 18:24:35 10° W 19:51:25 56° SSW 19:58:03 22° SE
Intelsat 5-2 Rocket 3.0 19:45:45 10° W 19:53:02 67° N 19:53:34 58° NE
Gbstr 26 Del rocket 3.6 19:49:41 10° SW 19:53:43 55° NW 19:56:33 22° NNE
ALOS 2.6 19:59:57 48° NNE 19:59:57 48° NNE 20:03:37 10° N
Mugunghwa Rocket 4.3 19:55:02 10° WSW 20:01:54 64° SSE 20:03:56 47° E
SeaSat 1 2.6 19:59:06 10° NNE 20:04:00 71° WNW 20:08:53 10° SSW
Cosmos 1452 Rocket 3.4 20:03:43 10° N 20:08:43 72° NE 20:08:43 72° NE
FENGYUN 3A 3.4 20:11:14 76° E 20:11:17 76° ENE 20:16:39 10° N
Palapa B4 Rocket 3.5 20:08:47 10° WSW 20:11:50 53° SW 20:11:50 53° SW
Nadezhda 4 Rocket 3.8 20:10:15 10° N 20:16:31 83° E 20:18:06 53° SSE
Cosmos 1634 Rocket 3.8 20:19:21 10° S 20:25:39 89° E 20:31:54 10° N
Cosmos 1943 3.6 20:23:14 10° SSW 20:28:46 60° WNW 20:31:40 28° N
BREEZE-M DEB (TANK) 4.3 20:36:27 10° NW 20:51:38 58° N 20:51:38 58° N
Atlas Centaur 2 3.8 21:11:13 10° WNW 21:16:48 44° W 21:16:48 44° W
